World > North America > United States > Georgia

Uvalda, Georgia Regional Weather

Lat: 32.04N, Lon: 82.51W
Wx Zone: GAZ112Web Search
Uvalda Weather Warning NWS WEATHER ALERT FOR THE UVALDA, GA AREA - Issued: 432 PM EST Wed Nov 25 2020 Uvalda Weather Warning  

Helpful Tip: Abbreviated, 7 Day, 14 Day Forecasts. There is a weather forecast for every taste.

Feedback
Uvalda Weather Map
UTC Time: 11/26/2020, 10:09
Your Time:

Uvalda, GA Regional Weather

Expires:202011261100;;420905
ASUS42 KFFC 261003
RWRGA 
WEATHER ROUNDUP FOR GEORGIA
NATIONAL WEATHER SERVICE PEACHTREE CITY GA
500 AM EST THU NOV 26 2020

NOTE: "FAIR" INDICATES FEW OR NO CLOUDS BELOW 12,000 FEET WITH NO
SIGNIFICANT WEATHER AND/OR OBSTRUCTIONS TO VISIBILITY. 

* = USE WITH CAUTION. THE STATIONS MARKED WITH AN ASTERISK MAY NOT
REPORT WEATHER SUCH AS PRECIPITATION, FOG, OR THUNDER AND ARE NOT 
QUALITY CONTROLLED BY NWS.

THE REMARK "TC" DENOTES TEMPERATURE READING IN DEGREES CELSIUS.


GAZ099>101-110>166-261100-
SOUTH GEORGIA
  
CITY           SKY/WX    TMP DP  RH WIND       PRES   REMARKS
SAVANNAH       CLEAR     64  61  90 S5        30.12S                  
VALDOSTA       PTCLDY    57  55  93 CALM      30.11F                  
ALMA           CLEAR     57  54  89 CALM      30.11S                  
ST SIMONS      CLEAR     67  65  93 S5        30.12F                  
ALBANY         CLOUDY    66  65  96 S6        30.09F                  
HUNTER AFB     CLEAR     65  61  88 S3        30.10R                  
BRUNSWICK      CLEAR     65  61  89 S7        30.12S                  

  
CITY           SKY/WX    TMP DP  RH WIND       PRES   REMARKS
BAINBRIDGE*    CLOUDY    66  66  98 S6        30.08F                  
MOULTRIE*      PTCLDY    61  61 100 SE3       30.10F                  
VIDALIA*       PTCLDY    61  55  82 CALM      30.11F                  
WAYCROSS*      CLEAR     60  56  84 S5        30.12S                  
DOUGLAS*       CLEAR     59  57  94 CALM      30.12F                  
$$
  

SKY/WX - Weather  TMP - Temperature  DP - Dew Point  RH - Relative Humidity
WIND - Wind Direction/Speed PRES - Barometric Pressure VSB - Visibility
WCI - Wind Chill Index E13G22 Wind - East Wind 13 mph/Gusts of 22 mph